Regional Weather Roundup
Issued by NWS

Home | Current Version | Previous Version | Graphics & Text | Print | Product List | Glossary On
Versions: 1 2 3 4 5 6 7 8 9 10 11 12 13 14 15 16 17 18 19 20 21 22 23 24 25 26 27 28 29 30 31 32 33 34 35 36 37 38 39 40 41 42 43 44 45 46 47 48 49 50
000
ASUS45 KPSR 271600
RWRAZ

ARIZONA HOURLY REGIONAL WEATHER ROUNDUP
NATIONAL WEATHER SERVICE PHOENIX AZ
900 AM MST WED MAY 27 2015

NOTE: FAIR INDICATES FEW OR NO CLOUDS BELOW 12,000 FEET WITH NO
SIGNIFICANT WEATHER AND/OR OBSTRUCTIONS TO VISIBILITY.

AZZ001>003-036-271700-
NORTHWEST ARIZONA

CITY           SKY/WX    TMP DP  RH WIND       PRES   REMARKS
KINGMAN        MOSUNNY   75  35  23 CALM      30.02S
$$

AZZ004>008-015-016-018-271700-
NORTH CENTRAL ARIZONA

CITY           SKY/WX    TMP DP  RH WIND       PRES   REMARKS
GRAND CANYON   MOSUNNY   63  25  23 SW7       30.20S
WILLIAMS       MOSUNNY   64  23  20 SW9       30.27R
PRESCOTT       CLOUDY    66  32  28 N3        30.12R
FLAGSTAFF      NOT AVBL
PAGE           PTSUNNY   67  43  41 N6        30.10S
$$

AZZ009>014-017-271700-
NORTHEAST ARIZONA

CITY           SKY/WX    TMP DP  RH WIND       PRES   REMARKS
WINSLOW        NOT AVBL
SAINT JOHNS    MOSUNNY   68  31  25 VRB3      30.15F
WINDOW ROCK    SUNNY     65  33  30 SE8       30.22S
$$

AZZ023-271700-
GREATER PHOENIX AREA

CITY           SKY/WX    TMP DP  RH WIND       PRES   REMARKS
PHOENIX        CLOUDY    80  40  23 E6        29.91S
GLENDALE       PTSUNNY   79  37  22 CALM      29.94R
LUKE AFB       CLOUDY    78  40  25 CALM      29.92R
DEER VALLEY    CLOUDY    78  37  22 S3        29.93S
SCOTTSDALE     CLOUDY    79  40  24 CALM      29.95S
MESA-FALCON    PTSUNNY   79  37  22 VRB6      29.93S
MESA-GATEWAY   PTSUNNY   77  43  29 SE7       29.95S
CHANDLER       CLOUDY    77  41  27 VRB3      29.94R
$$

AZZ027-028-271700-
SOUTHWEST MARICOPA COUNTY AND PINAL COUNTY

CITY           SKY/WX    TMP DP  RH WIND       PRES   REMARKS
CASA GRANDE    CLOUDY    75  39  27 CALM      29.94S
GILA BEND      MOSUNNY   81  34  18 VRB5      29.91S
$$

AZZ503-504-507>509-271700-
SOUTHEAST ARIZONA

CITY           SKY/WX    TMP DP  RH WIND       PRES   REMARKS
TUCSON         PTSUNNY   76  33  21 S8        30.02F
DAVIS-MONTHAN  CLOUDY    76  34  22 SE7       30.00F
RYAN FIELD       N/A     77  37  24 E5        30.01S
NOGALES        MOSUNNY   73  31  21 VRB5      30.07F
SIERRA VISTA   PTSUNNY   71  23  16 SE9       30.13R
SAFFORD        CLOUDY    75  31  19 SE8       30.03R
$$

AZZ020-021-025-026-031-271700-
SOUTHWEST ARIZONA

CITY           SKY/WX    TMP DP  RH WIND       PRES   REMARKS
YUMA           PTSUNNY   79  43  27 VRB3      29.89R
$$

CAZ031-033-041-043-047-048-061-271700-
SOUTHERN CALIFORNIA

CITY           SKY/WX    TMP DP  RH WIND       PRES   REMARKS
DOWNTOWN L.A.  CLOUDY    62  54  74 CALM      30.00R HAZE
L.A. AIRPORT   CLOUDY    59  54  83 W6        30.02R
SAN DIEGO      CLOUDY    64  54  69 NW8       30.01R
BURBANK        CLOUDY    60  52  74 CALM      30.00R
ONTARIO        CLOUDY    61  52  72 SW3       29.99S HAZE
RIVERSIDE      CLOUDY    61  53  75 CALM      29.99S
PALM SPRINGS   SUNNY     77  51  40 CALM      29.90S
EL CENTRO NAS  PTSUNNY   77  56  48 SW6       29.89R
IMPERIAL       MOSUNNY   76  57  51 SW7       29.87R
BLYTHE         PTSUNNY   81  39  22 S3        29.89R
$$

NVZ020-UTZ003-271700-
SOUTHERN NEVADA-UTAH

CITY           SKY/WX    TMP DP  RH WIND       PRES   REMARKS
LAS VEGAS      NOT AVBL
SALT LAKE CITY PTSUNNY   58  49  72 W17       30.10R
$$

NMZ009-TXZ055-271700-
NEW MEXICO-WEST TEXAS

CITY           SKY/WX    TMP DP  RH WIND       PRES   REMARKS
ALBUQUERQUE    PTSUNNY   67  43  41 S5        30.18S
EL PASO        MOSUNNY   77  25  14 CALM      30.08S
$$


........................KEY........................
SKY/WX - SKY CONDITION/WEATHER
TMP    - TEMPERATURE IN FAHRENHEIT
DP     - DEW POINT IN FAHRENHEIT
RH     - RELATIVE HUMIDITY IN PERCENT
WIND   - DIRECTION AND SPEED IN MILES PER HOUR (MPH)
VRB    - VARIABLE WIND DIRECTION
PRES   - MEAN SEA LEVEL PRESSURE IN INCHES OF MERCURY
         F - FALLING PRESSURE   R - RISING PRESSURE
         S - STEADY PRESSURE
VSB    - VISIBILITY IN MILES
HX     - HEAT INDEX IN FAHRENHEIT
WCI    - WIND CHILL INDEX IN FAHRENHEIT
TC     - TEMPERATURE IN CELSIUS WHICH IS ALSO KNOWN AS
         TEMPERATURE IN CENTIGRADE
AFB    - AIR FORCE BASE
         LUKE AFB IS LUKE AIR FORCE BASE
         DAVIS-MONTHAN IS DAVIS-MONTHAN AIR FORCE BASE
NAS    - NAVAL AIR STATION
         EL CENTRO NAS IS EL CENTRO NAVAL AIR STATION
N/A    - NOT AVAILABLE



USA.gov is the U.S. government's official web portal to all federal, state and local government web resources and services.